EA3CD Weather Reports


time (UTC)temp
C
wind
direction
speed
KPH
gust
KPH
rain 1hr
cm
rain 24hr
cm
rain mn
cm
humidity
%
barometer
mb
20260502151800 18 105 11.3 17.7 0.00 0.00 0.00 98 1016.5
20260502151500 18 114 3.2 17.7 0.00 0.00 0.00 98 1016.5
20260502151200 18 119 12.9 17.7 0.00 0.00 0.00 98 1016.5
20260502150900 18 126 9.7 12.9 0.00 0.00 0.00 98 1016.5
20260502150559 18 111 8.0 16.1 0.00 0.00 0.00 98 1016.5
20260502150300 18 101 6.4 16.1 0.00 0.00 0.00 98 1016.5
20260502123600 20 104 6.4 20.9 0.00 0.00 0.00 94 1018.5
20260502123300 21 97 14.5 20.9 0.00 0.00 0.00 95 1018.5
20260502122959 20 93 8.0 20.9 0.00 0.00 0.00 95 1018.5
20260502122400 20 92 14.5 20.9 0.00 0.00 0.00 95 1018.5
20260502122100 20 90 16.1 20.9 0.00 0.00 0.00 95 1018.5
20260502121800 20 91 20.9 20.9 0.00 0.00 0.00 95 1018.5
20260502121459 20 82 12.9 20.9 0.00 0.00 0.00 96 1018.5
20260502121200 19 67 20.9 20.9 0.00 0.00 0.00 96 1018.5
20260502120559 19 85 6.4 17.7 0.00 0.00 0.00 93 1018.5
20260502115700 20 105 14.5 16.1 0.00 0.00 0.00 92 1018.5
20260502115059 19 97 14.5 19.3 0.00 0.00 0.00 89 1018.5
20260502114459 19 103 19.3 19.3 0.00 0.00 0.00 90 1018.5
20260502114200 19 116 12.9 16.1 0.00 0.00 0.00 90 1018.5
20260502113900 19 109 4.8 16.1 0.00 0.00 0.00 88 1018.5
20260502113600 19 118 16.1 16.1 0.00 0.00 0.00 83 1018.5
20260502113300 20 113 14.5 16.1 0.00 0.00 0.00 85 1018.5
20260502113000 20 97 6.4 16.1 0.00 0.00 0.00 84 1018.5
20260502112659 20 91 6.4 14.5 0.00 0.00 0.00 81 1018.5
20260502112400 20 123 9.7 19.3 0.00 0.00 0.00 79 1018.5
20260502112100 20 132 14.5 19.3 0.00 0.00 0.00 75 1018.5
20260502111759 20 119 12.9 19.3 0.00 0.00 0.00 75 1018.5
20260502111459 20 81 19.3 19.3 0.00 0.00 0.00 76 1018.5
20260502110900 20 49 14.5 14.5 0.00 0.00 0.00 75 1018.5
20260502110600 20 65 14.5 14.5 0.00 0.00 0.00 71 1018.5
20260502110000 20 92 9.7 19.3 0.00 0.00 0.00 70 1018.5
20260502105700 20 83 9.7 19.3 0.00 0.00 0.00 67 1018.5
20260502105359 20 83 9.7 19.3 0.00 0.00 0.00 69 1018.5
20260502105059 20 86 14.5 16.1 0.00 0.00 0.00 72 1018.5
20260502104500 20 118 6.4 9.7 0.00 0.00 0.00 74 1018.5
20260502104159 20 116 9.7 9.7 0.00 0.00 0.00 80 1018.5
20260502103900 20 112 6.4 9.7 0.00 0.00 0.00 77 1018.5
20260502103559 20 108 9.7 12.9 0.00 0.00 0.00 76 1018.5
20260502103259 20 122 9.7 12.9 0.00 0.00 0.00 72 1018.5
20260502103000 20 122 4.8 14.5 0.00 0.00 0.00 71 1018.5
20260502102100 20 113 3.2 12.9 0.00 0.00 0.00 58 1018.5
20260502101800 20 100 8.0 11.3 0.00 0.00 0.00 51 1018.5
20260502101501 20 95 4.8 11.3 0.00 0.00 0.00 51 1018.5
20260502101200 21 96 8.0 9.7 0.00 0.00 0.00 48 1018.5
20260502100859 21 105 4.8 8.0 0.00 0.00 0.00 50 1018.5
20260502100600 21 101 1.6 9.7 0.00 0.00 0.00 51 1018.5
20260502100259 21 91 8.0 14.5 0.00 0.00 0.00 50 1018.5
20260502091500 21 91 11.3 14.5 0.00 0.00 0.00 64 1018.5
20260502091200 21 92 12.9 14.5 0.00 0.00 0.00 63 1018.5
20260502090900 20 97 14.5 14.5 0.00 0.00 0.00 68 1018.5
20260502090559 20 95 8.0 12.9 0.00 0.00 0.00 69 1018.5
20260502090300 20 95 6.4 12.9 0.00 0.00 0.00 70 1018.5
20260502071200 18 86 9.7 9.7 0.00 0.00 0.00 94 1018.5
20260502070900 18 99 3.2 8.0 0.00 0.00 0.00 95 1018.5
20260502070600 18 95 4.8 12.9 0.00 0.00 0.00 95 1018.5
20260502070259 18 93 8.0 12.9 0.00 0.00 0.00 95 1018.5
20260502070000 18 92 3.2 12.9 0.00 0.00 0.00 95 1018.5
20260502065701 18 88 12.9 12.9 0.00 0.00 0.00 96 1018.5
20260502065401 18 82 8.0 12.9 0.00 0.00 0.00 96 1018.5
20260502065100 18 82 3.2 11.3 0.00 0.00 0.00 97 1018.5
20260502064501 18 75 8.0 11.3 0.00 0.00 0.00 97 1018.5
20260502064200 18 69 11.3 11.3 0.00 0.00 0.00 97 1018.5
20260502063300 18 83 1.6 9.7 0.00 0.00 0.00 97 1018.5
20260502062700 18 87 9.7 14.5 0.00 0.00 0.00 98 1018.5
20260502062401 18 90 6.4 14.5 0.00 0.00 0.00 98 1018.5
20260502062101 18 95 14.5 14.5 0.00 0.00 0.00 98 1018.5
20260502061200 17 77 12.9 14.5 0.00 0.00 0.00 98 1018.5
20260502060901 17 67 6.4 6.4 0.00 0.00 0.00 98 1018.5
20260502060600 17 79 3.2 6.4 0.00 0.00 0.00 98 1018.5
20260502060300 17 83 3.2 6.4 0.00 0.00 0.00 98 1018.5
20260502060001 17 82 4.8 6.4 0.00 0.00 0.00 98 1018.5
20260502055701 17 73 6.4 9.7 0.00 0.00 0.00 98 1018.5
20260502055400 17 67 4.8 9.7 0.00 0.00 0.00 98 1018.5
20260502055100 17 61 6.4 9.7 0.00 0.00 0.00 98 1018.5
20260502054801 17 54 9.7 9.7 0.00 0.00 0.00 98 1018.5
20260502054500 17 50 4.8 6.4 0.00 0.00 0.00 98 1018.5
20260502053900 17 53 6.4 6.4 0.00 0.00 0.00 98 1018.5
20260502053300 17 59 3.2 6.4 0.00 0.00 0.00 98 1018.5
20260502052701 17 63 3.2 9.7 0.00 0.00 0.00 98 1018.5
20260502052400 17 59 4.8 11.3 0.00 0.00 0.00 98 1018.5
20260502051201 17 67 6.4 9.7 0.00 0.00 0.00 98 1018.5
20260502050901 17 61 4.8 9.7 0.00 0.00 0.00 98 1018.5
20260502050600 17 71 9.7 9.7 0.00 0.00 0.00 98 1018.5
20260502050000 17 78 4.8 14.5 0.00 0.00 0.00 98 1018.5
20260502045701 17 72 6.4 14.5 0.00 0.00 0.00 98 1018.5
20260502045400 17 75 6.4 14.5 0.00 0.00 0.00 98 1018.5
20260502044801 17 65 8.0 12.9 0.00 0.00 0.00 98 1018.5
20260502044501 17 74 12.9 12.9 0.00 0.00 0.00 98 1018.5
20260502043901 17 80 8.0 9.7 0.00 0.00 0.00 98 1018.5
20260502043601 17 84 6.4 12.9 0.00 0.00 0.00 98 1018.5
20260502043301 17 77 9.7 12.9 0.00 0.00 0.00 98 1018.5
20260502043001 17 69 6.4 12.9 0.00 0.00 0.00 98 1018.5
20260502042401 17 63 6.4 11.3 0.00 0.00 0.00 98 1018.5
20260502042101 17 66 11.3 14.5 0.00 0.00 0.00 98 1018.5
20260502041801 17 67 6.4 14.5 0.00 0.00 0.00 98 1018.5
20260502041501 17 61 9.7 14.5 0.00 0.00 0.00 98 1018.5
20260502041201 17 59 6.4 9.7 0.00 0.00 0.00 98 1018.5
20260502040901 17 60 9.7 16.1 0.00 0.00 0.00 98 1018.5
20260502040600 17 72 6.4 16.1 0.00 0.00 0.00 98 1018.5
20260502040301 17 69 6.4 16.1 0.00 0.00 0.00 98 1018.5
20260502040001 17 73 6.4 12.9 0.00 0.00 0.00 98 1018.5
20260502035101 17 73 9.7 9.7 0.00 0.00 0.00 98 1018.5
20260502034801 17 80 1.6 9.7 0.00 0.00 0.00 98 1018.5
20260502034502 17 85 4.8 9.7 0.00 0.00 0.00 98 1018.5
20260502034201 17 76 9.7 9.7 0.00 0.00 0.00 98 1018.5
20260502033901 17 71 4.8 9.7 0.00 0.00 0.00 98 1018.5
20260502033601 17 79 6.4 16.1 0.00 0.00 0.00 98 1018.5
20260502033300 17 82 8.0 16.1 0.00 0.00 0.00 98 1018.5
20260502033001 17 88 9.7 16.1 0.00 0.00 0.00 98 1018.5
20260502032701 17 84 16.1 16.1 0.00 0.00 0.00 98 1018.5
20260502032101 17 81 9.7 14.5 0.00 0.00 0.00 98 1018.5
20260502031801 17 79 8.0 14.5 0.00 0.00 0.00 98 1018.5
20260502031501 17 79 9.7 14.5 0.00 0.00 0.00 98 1018.5
20260502031201 17 78 4.8 9.7 0.00 0.00 0.00 98 1018.5
20260502030901 17 86 9.7 14.5 0.00 0.00 0.00 98 1018.5
20260502030601 17 90 9.7 14.5 0.00 0.00 0.00 98 1018.5
20260502030002 17 84 6.4 9.7 0.00 0.00 0.00 98 1018.5
20260502025702 17 80 8.0 9.7 0.00 0.00 0.00 98 1018.5
20260502025401 17 76 6.4 9.7 0.00 0.00 0.00 98 1018.5
20260502025101 17 79 8.0 14.5 0.00 0.00 0.00 98 1018.5
20260502024802 17 90 4.8 14.5 0.00 0.00 0.00 98 1018.5
20260502024501 17 93 3.2 14.5 0.00 0.00 0.00 98 1018.5
20260502024202 17 90 14.5 14.5 0.00 0.00 0.00 98 1018.5
20260502023901 17 86 8.0 9.7 0.00 0.00 0.00 98 1018.5
20260502023601 17 82 6.4 9.7 0.00 0.00 0.00 98 1018.5
20260502023301 17 85 8.0 12.9 0.00 0.00 0.00 98 1018.5
20260502023002 17 80 9.7 12.9 0.00 0.00 0.00 98 1018.5
20260502022701 17 82 6.4 12.9 0.00 0.00 0.00 98 1018.5
20260502022402 17 81 12.9 12.9 0.00 0.00 0.00 98 1018.5
20260502022101 17 79 6.4 12.9 0.00 0.00 0.00 98 1018.5
20260502021802 17 78 9.7 12.9 0.00 0.00 0.00 98 1018.5
20260502021501 17 76 8.0 12.9 0.00 0.00 0.00 98 1018.5
20260502021202 17 85 9.7 14.5 0.00 0.00 0.00 98 1018.5
20260502020902 17 80 6.4 14.5 0.00 0.00 0.00 98 1018.5
20260502020601 17 86 8.0 14.5 0.00 0.00 0.00 98 1018.5
20260502015701 17 99 4.8 12.9 0.00 0.00 0.00 98 1018.5
20260502014802 17 91 1.6 9.7 0.00 0.00 0.00 98 1018.5
20260502014502 17 94 9.7 9.7 0.00 0.00 0.00 98 1018.5
20260502014201 17 82 9.7 11.3 0.00 0.00 0.00 98 1018.5
20260502013902 17 77 8.0 11.3 0.00 0.00 0.00 98 1018.5
20260502013602 17 74 9.7 11.3 0.00 0.00 0.00 98 1018.5
20260502013301 17 80 4.8 9.7 0.00 0.00 0.00 98 1018.5
20260502013002 17 80 9.7 9.7 0.00 0.00 0.00 98 1018.5
20260502012402 17 88 4.8 9.7 0.00 0.00 0.00 98 1018.5
20260502011502 17 80 6.4 12.9 0.00 0.00 0.00 98 1018.5
20260502011202 17 84 9.7 12.9 0.00 0.00 0.00 98 1018.5
20260502010903 17 76 8.0 12.9 0.00 0.00 0.00 98 1018.5
20260502010602 17 85 9.7 20.9 0.00 0.00 0.00 98 1018.5
20260502010302 17 81 9.7 20.9 0.00 0.00 0.00 98 1018.5
20260502010001 17 84 9.7 20.9 0.00 0.00 0.00 98 1018.5
20260502005702 17 82 9.7 12.9 0.00 0.00 0.00 98 1018.5
20260502005402 17 83 4.8 12.9 0.00 0.00 0.00 98 1018.5
20260502005103 17 77 8.0 12.9 0.00 0.00 0.00 98 1018.5
20260502004802 17 78 4.8 12.9 0.00 0.00 0.00 98 1018.5
20260502004502 17 74 8.0 9.7 0.00 0.00 0.00 98 1018.5
20260502004202 17 78 4.8 9.7 0.00 0.00 0.00 98 1018.5
20260502003902 17 82 6.4 9.7 0.00 0.00 0.00 98 1018.5
20260502003602 17 82 9.7 11.3 0.00 0.00 0.00 98 1018.5
20260502003002 17 78 8.0 11.3 0.00 0.00 0.00 98 1019.5
20260502002702 17 75 11.3 11.3 0.00 0.00 0.00 98 1019.5
20260502002402 17 66 3.2 8.0 0.00 0.00 0.00 98 1019.5
20260502002101 17 70 3.2 8.0 0.00 0.00 0.00 98 1019.5
20260502001502 17 73 6.4 8.0 0.00 0.00 0.00 98 1019.5
20260502001202 17 74 4.8 9.7 0.00 0.00 0.00 98 1019.5
20260502000902 17 76 4.8 9.7 0.00 0.00 0.00 98 1019.5
20260502000602 17 76 8.0 9.7 0.00 0.00 0.00 98 1019.5
20260502000303 17 71 6.4 8.0 0.00 0.00 0.00 98 1019.5
20260502000002 17 73 4.8 9.7 0.00 0.00 0.00 98 1019.5
20260501235703 17 81 6.4 9.7 0.00 0.00 0.00 98 1019.5
20260501235102 17 85 9.7 9.7 0.00 0.00 0.00 98 1019.5
20260501234802 17 76 9.7 9.7 0.00 0.00 0.00 98 1019.5
20260501234503 17 78 8.0 12.9 0.00 0.00 0.00 98 1019.5
20260501234203 17 79 9.7 12.9 0.00 0.00 0.00 98 1019.5
20260501233902 17 80 9.7 12.9 0.00 0.00 0.00 98 1019.5
20260501233602 17 83 12.9 12.9 0.00 0.00 0.00 98 1019.5
20260501233302 17 85 4.8 6.4 0.00 0.00 0.00 98 1019.5
20260501233002 17 84 6.4 8.0 0.00 0.00 0.00 98 1019.5
20260501232703 17 87 4.8 8.0 0.00 0.00 0.00 98 1019.5
20260501232402 17 81 4.8 8.0 0.00 0.00 0.00 98 1019.5
20260501231802 17 85 4.8 16.1 0.00 0.00 0.00 98 1019.5
20260501231503 17 97 6.4 16.1 0.00 0.00 0.00 98 1019.5
20260501231203 17 102 16.1 16.1 0.00 0.00 0.00 98 1019.5
20260501230902 17 93 9.7 11.3 0.00 0.00 0.00 98 1020.5
20260501230603 17 90 11.3 11.3 0.00 0.00 0.00 98 1020.5
20260501230002 17 90 9.7 9.7 0.00 0.00 0.00 98 1020.5
20260501225702 17 89 3.2 8.0 0.00 0.00 0.00 98 1020.5
20260501225403 17 82 8.0 8.0 0.00 0.00 0.00 98 1020.5
20260501225102 17 77 6.4 6.4 0.00 0.00 0.00 98 1020.5
20260501224803 17 74 4.8 6.4 0.00 0.00 0.00 98 1020.5
20260501224503 17 58 4.8 4.8 0.00 0.00 0.00 98 1020.5
20260501224203 17 62 3.2 3.2 0.00 0.00 0.00 98 1020.5
20260501223904 17 63 1.6 3.2 0.00 0.00 0.00 98 1020.5
20260501223603 17 75 1.6 4.8 0.00 0.00 0.00 98 1020.5
20260501223303 17 81 1.6 4.8 0.00 0.00 0.00 98 1020.5
20260501223002 17 72 3.2 4.8 0.00 0.00 0.00 98 1019.5
20260501222403 17 59 1.6 4.8 0.00 0.00 0.00 98 1019.5
20260501222102 17 51 4.8 4.8 0.00 0.00 0.00 98 1019.5
20260501221803 17 30 0.0 6.4 0.00 0.00 0.00 98 1019.5
20260501221203 17 37 3.2 6.4 0.00 0.00 0.00 98 1019.5
20260501220902 17 41 6.4 6.4 0.00 0.00 0.00 98 1019.5
20260501220603 17 46 6.4 6.4 0.00 0.00 0.00 98 1019.5
20260501220303 17 46 4.8 6.4 0.00 0.00 0.00 98 1019.5
20260501215703 17 50 6.4 6.4 0.00 0.00 0.00 98 1019.5
20260501215403 17 52 3.2 6.4 0.00 0.00 0.00 98 1019.5
20260501214803 17 61 3.2 8.0 0.00 0.00 0.00 98 1019.5
20260501214504 17 61 3.2 8.0 0.00 0.00 0.00 98 1019.5
20260501214203 17 63 3.2 8.0 0.00 0.00 0.00 98 1019.5
20260501213903 17 54 4.8 6.4 0.00 0.00 0.00 98 1019.5
20260501213303 17 70 3.2 6.4 0.00 0.00 0.00 98 1019.5
20260501213003 17 71 4.8 6.4 0.00 0.00 0.00 98 1019.5
20260501212703 17 64 4.8 6.4 0.00 0.00 0.00 98 1019.5
20260501212403 17 56 6.4 8.0 0.00 0.00 0.00 98 1019.5
20260501212103 17 53 3.2 8.0 0.00 0.00 0.00 98 1019.5
20260501211503 17 55 3.2 8.0 0.00 0.00 0.00 98 1019.5
20260501211203 17 49 1.6 6.4 0.00 0.00 0.00 98 1019.5
20260501210904 17 46 4.8 11.3 0.00 0.00 0.00 98 1019.5
20260501210603 17 49 6.4 11.3 0.00 0.00 0.00 98 1019.5
20260501210302 17 48 6.4 11.3 0.00 0.00 0.00 98 1019.5
20260501210004 17 54 4.8 11.3 0.00 0.00 0.00 98 1019.5
20260501205704 17 53 4.8 11.3 0.00 0.00 0.00 98 1019.5
20260501205403 17 50 11.3 11.3 0.00 0.00 0.00 98 1019.5
20260501205103 17 51 4.8 8.0 0.00 0.00 0.00 98 1019.5
20260501204803 17 50 8.0 9.7 0.00 0.00 0.00 98 1019.5
20260501204504 17 54 4.8 9.7 0.00 0.00 0.00 98 1019.5
20260501204203 17 53 8.0 9.7 0.00 0.00 0.00 98 1019.5
20260501203904 17 58 9.7 9.7 0.00 0.00 0.00 98 1019.5
20260501203603 17 60 9.7 9.7 0.00 0.00 0.00 98 1019.5
20260501203304 17 58 4.8 9.7 0.00 0.00 0.00 98 1019.5
20260501203003 17 56 8.0 11.3 0.00 0.00 0.00 98 1019.5
20260501202704 17 54 4.8 11.3 0.00 0.00 0.00 98 1019.5
20260501202103 17 56 9.7 9.7 0.00 0.00 0.00 98 1019.5
20260501201803 17 59 4.8 9.7 0.00 0.00 0.00 98 1019.5
20260501201503 17 55 6.4 11.3 0.00 0.00 0.00 98 1019.5
20260501201204 17 60 9.7 11.3 0.00 0.00 0.00 98 1019.5
20260501200903 17 67 9.7 14.5 0.00 0.00 0.00 98 1019.5
20260501200604 17 75 8.0 14.5 0.00 0.00 0.00 98 1019.5
20260501200003 17 80 11.3 11.3 0.00 0.00 0.00 98 1019.5
20260501195704 17 70 11.3 11.3 0.00 0.00 0.00 98 1019.5
20260501195104 17 64 8.0 11.3 0.00 0.00 0.00 98 1019.5
20260501194803 17 79 4.8 9.7 0.00 0.00 0.00 98 1019.5
20260501194503 17 83 3.2 9.7 0.00 0.00 0.00 98 1019.5
20260501194204 17 79 6.4 12.9 0.00 0.00 0.00 98 1019.5
20260501193903 17 98 9.7 16.1 0.00 0.00 0.00 98 1019.5
20260501193004 17 79 6.4 14.5 0.00 0.00 0.00 98 1019.5
20260501192703 17 80 4.8 16.1 0.00 0.00 0.00 98 1019.5
20260501192404 17 91 9.7 16.1 0.00 0.00 0.00 98 1019.5
20260501192104 17 90 14.5 19.3 0.00 0.00 0.00 98 1019.5
20260501191810 17 86 16.1 19.3 0.00 0.00 0.00 98 1019.5
20260501191510 17 85 9.7 19.3 0.00 0.00 0.00 98 1018.5
20260501191209 17 84 9.7 16.1 0.00 0.00 0.00 98 1018.5
20260501190310 17 83 6.4 16.1 0.00 0.00 0.00 98 1018.5
20260501190010 17 84 9.7 16.1 0.00 0.00 0.00 98 1018.5
20260501185709 17 84 9.7 16.1 0.00 0.00 0.00 98 1018.5
20260501185410 17 92 16.1 16.1 0.00 0.00 0.00 98 1018.5
20260501185109 17 88 9.7 16.1 0.00 0.00 0.00 98 1018.5
20260501184810 17 85 9.7 16.1 0.00 0.00 0.00 98 1018.5
20260501184509 17 83 12.9 20.9 0.00 0.00 0.00 98 1018.5
20260501184210 17 81 4.8 20.9 0.00 0.00 0.00 98 1018.5
20260501183910 17 84 12.9 20.9 0.00 0.00 0.00 98 1018.5
20260501183609 17 85 16.1 19.3 0.00 0.00 0.00 98 1018.5
20260501183309 17 90 11.3 19.3 0.00 0.00 0.00 98 1018.5
20260501182710 18 95 12.9 20.9 0.00 0.00 0.00 98 1018.5
20260501182409 18 99 14.5 20.9 0.00 0.00 0.00 98 1018.5
20260501182110 18 96 20.9 20.9 0.00 0.00 0.00 98 1018.5
20260501181810 18 101 9.7 16.1 0.00 0.00 0.00 98 1018.5
20260501181509 18 110 16.1 16.1 0.00 0.00 0.00 98 1018.5
20260501181209 18 108 9.7 19.3 0.00 0.00 0.00 98 1018.5
20260501180609 18 96 6.4 19.3 0.00 0.00 0.00 98 1018.5
20260501180310 18 99 9.7 12.9 0.00 0.00 0.00 98 1018.5
20260501175710 18 95 3.2 14.5 0.00 0.00 0.00 98 1018.5
20260501175409 18 92 9.7 14.5 0.00 0.00 0.00 98 1018.5
20260501175110 18 90 14.5 20.9 0.00 0.00 0.00 98 1018.5
20260501174809 18 87 4.8 20.9 0.00 0.00 0.00 98 1018.5
20260501174510 18 85 12.9 20.9 0.00 0.00 0.00 98 1018.5
20260501174210 18 84 6.4 17.7 0.00 0.00 0.00 98 1018.5
20260501173009 18 107 11.3 30.6 0.00 0.00 0.00 98 1018.5
20260501172709 18 94 14.5 20.9 0.00 0.00 0.00 98 1018.5
20260501171810 18 113 14.5 20.9 0.00 0.00 0.00 96 1018.5
20260501171509 19 106 20.9 20.9 0.00 0.00 0.00 96 1018.5
20260501170910 19 106 12.9 24.1 0.00 0.00 0.00 93 1018.5
20260501170609 19 99 12.9 24.1 0.00 0.00 0.00 92 1018.5
20260501170310 19 98 16.1 22.5 0.00 0.00 0.00 92 1018.5
20260501170009 19 94 6.4 22.5 0.00 0.00 0.00 91 1018.5
20260501165710 19 100 12.9 20.9 0.00 0.00 0.00 90 1018.5
20260501165410 19 100 14.5 17.7 0.00 0.00 0.00 89 1018.5
20260501164809 19 96 14.5 20.9 0.00 0.00 0.00 88 1018.5
20260501164509 20 97 16.1 20.9 0.00 0.00 0.00 87 1017.5
20260501164210 20 105 8.0 20.9 0.00 0.00 0.00 87 1017.5
20260501163910 20 100 19.3 20.9 0.00 0.00 0.00 85 1017.5
20260501163610 20 104 12.9 20.9 0.00 0.00 0.00 85 1017.5
20260501163309 20 102 9.7 24.1 0.00 0.00 0.00 85 1017.5
20260501162409 20 115 14.5 17.7 0.00 0.00 0.00 87 1017.5
20260501162110 20 111 16.1 20.9 0.00 0.00 0.00 86 1017.5
20260501161810 20 103 9.7 20.9 0.00 0.00 0.00 88 1017.5
20260501161509 20 108 12.9 20.9 0.00 0.00 0.00 88 1017.5
20260501161210 20 103 20.9 24.1 0.00 0.00 0.00 89 1017.5
20260501160909 19 104 17.7 24.1 0.00 0.00 0.00 90 1017.5
20260501160609 19 107 9.7 24.1 0.00 0.00 0.00 90 1017.5
20260501160309 19 99 24.1 24.1 0.00 0.00 0.00 90 1017.5
20260501160010 19 96 11.3 24.1 0.00 0.00 0.00 89 1017.5
20260501155709 19 90 14.5 24.1 0.00 0.00 0.00 88 1017.5
20260501155410 20 90 22.5 22.5 0.00 0.00 0.00 88 1017.5
20260501154809 19 97 14.5 32.2 0.00 0.00 0.00 88 1017.5
20260501154209 19 104 20.9 32.2 0.00 0.00 0.00 87 1017.5
20260501153910 20 105 19.3 32.2 0.00 0.00 0.00 85 1017.5
20260501153609 20 90 24.1 32.2 0.00 0.00 0.00 85 1017.5